W4HIX-2 Weather Reports


time (UTC)temp
C
wind
direction
speed
KPH
gust
KPH
rain 1hr
cm
rain 24hr
cm
rain mn
cm
humidity
%
barometer
mb
20260505111516 20 0.0 0.0 0.00 0.00 0.00 89 1014.5
20260505110517 20 58 0.0 1.6 0.00 0.00 0.00 89 1014.6
20260505101516 20 48 0.0 4.8 0.00 0.00 0.00 89 1014.2
20260505100516 20 47 0.0 1.6 0.00 0.00 0.00 88 1014.0
20260505095516 20 55 1.6 6.4 0.00 0.00 0.00 88 1014.0
20260505094516 20 72 0.0 3.2 0.00 0.00 0.00 88 1013.9
20260505093516 20 51 0.0 3.2 0.00 0.00 0.00 89 1014.0
20260505092536 20 47 0.0 3.2 0.00 0.00 0.00 89 1013.7
20260505091516 20 41 0.0 4.8 0.00 0.00 0.00 88 1013.7
20260505090517 20 38 0.0 1.6 0.00 0.00 0.00 88 1013.7
20260505085537 20 38 0.0 4.8 0.00 0.00 0.00 88 1013.6
20260505084516 20 42 0.0 8.0 0.00 0.00 0.00 88 1013.7
20260505083517 20 64 0.0 3.2 0.00 0.00 0.00 88 1013.7
20260505082516 20 0.0 0.0 0.00 0.00 0.00 88 1013.8
20260505081516 20 0.0 0.0 0.00 0.00 0.00 87 1013.7
20260505080516 20 0.0 0.0 0.00 0.00 0.00 87 1013.7
20260505075536 20 0.0 0.0 0.00 0.00 0.00 86 1013.8
20260505074516 20 0.0 4.8 0.00 0.00 0.00 86 1013.8
20260505073516 20 52 0.0 3.2 0.00 0.00 0.00 86 1014.0
20260505072536 20 47 0.0 3.2 0.00 0.00 0.00 85 1014.0
20260505071516 20 37 0.0 3.2 0.00 0.00 0.00 85 1014.0
20260505070516 20 30 0.0 3.2 0.00 0.00 0.00 84 1013.9
20260505065516 20 25 0.0 8.0 0.00 0.00 0.00 84 1013.9
20260505064536 21 31 0.0 3.2 0.00 0.00 0.00 83 1014.1
20260505063516 21 21 0.0 3.2 0.00 0.00 0.00 83 1014.1
20260505062516 21 35 0.0 3.2 0.00 0.00 0.00 83 1014.4
20260505061516 21 30 0.0 4.8 0.00 0.00 0.00 82 1014.7
20260505060536 21 32 0.0 3.2 0.00 0.00 0.00 82 1014.9
20260505055516 21 21 1.6 6.4 0.00 0.00 0.00 82 1015.1
20260505054516 21 28 1.6 6.4 0.00 0.00 0.00 82 1015.0
20260505053516 21 34 0.0 4.8 0.00 0.00 0.00 82 1015.0
20260505052516 21 22 0.0 11.3 0.00 0.00 0.00 82 1015.2
20260505051516 21 21 1.6 6.4 0.00 0.00 0.00 81 1015.2
20260505050516 21 32 0.0 3.2 0.00 0.00 0.00 81 1015.1
20260505041516 22 64 0.0 17.7 0.00 0.00 0.00 79 1015.4
20260505040516 22 55 3.2 17.7 0.00 0.00 0.00 78 1015.4
20260505035516 22 60 1.6 11.3 0.00 0.00 0.00 78 1015.3
20260505034515 22 61 3.2 11.3 0.00 0.00 0.00 77 1015.4
20260505033556 22 78 1.6 16.1 0.00 0.00 0.00 77 1015.4
20260505032516 22 74 3.2 12.9 0.00 0.00 0.00 76 1015.5
20260505031516 23 74 1.6 6.4 0.00 0.00 0.00 76 1015.4
20260505030516 23 49 1.6 12.9 0.00 0.00 0.00 75 1015.5
20260505025515 23 58 3.2 9.7 0.00 0.00 0.00 75 1015.5
20260505024536 23 77 3.2 11.3 0.00 0.00 0.00 74 1015.5
20260505023516 23 67 0.0 9.7 0.00 0.00 0.00 74 1015.4
20260505022516 23 67 1.6 4.8 0.00 0.00 0.00 74 1015.2
20260505021516 23 72 1.6 17.7 0.00 0.00 0.00 73 1015.1
20260505020515 24 78 1.6 9.7 0.00 0.00 0.00 73 1015.0
20260505015536 24 69 1.6 19.3 0.00 0.00 0.00 72 1015.1
20260505014516 24 61 3.2 11.3 0.00 0.00 0.00 71 1015.0
20260505013516 24 67 4.8 16.1 0.00 0.00 0.00 71 1014.8
20260505012516 25 75 3.2 16.1 0.00 0.00 0.00 70 1014.6
20260505011516 25 62 1.6 8.0 0.00 0.00 0.00 69 1014.5
20260505010515 25 48 1.6 8.0 0.00 0.00 0.00 68 1014.4
20260505005556 25 45 1.6 6.4 0.00 0.00 0.00 68 1014.3
20260505004515 25 48 0.0 4.8 0.00 0.00 0.00 67 1014.1
20260505003515 26 60 1.6 8.0 0.00 0.00 0.00 66 1014.1
20260505002515 26 64 1.6 6.4 0.00 0.00 0.00 66 1013.9
20260505001515 26 37 1.6 9.7 0.00 0.00 0.00 65 1013.7
20260505000515 26 230 0.0 11.3 0.00 0.00 0.00 65 1013.4
20260504235515 26 264 3.2 14.5 0.00 0.00 0.00 67 1013.1
20260504234515 25 251 8.0 17.7 0.00 0.00 0.00 67 1013.1
20260504233515 26 251 8.0 16.1 0.00 0.00 0.00 67 1013.2
20260504232515 26 230 4.8 9.7 0.00 0.00 0.00 67 1013.1
20260504231515 26 241 8.0 20.9 0.00 0.00 0.00 65 1013.1
20260504230515 26 245 6.4 14.5 0.00 0.00 0.00 66 1013.1
20260504225515 26 247 8.0 22.5 0.00 0.00 0.00 65 1013.1
20260504224536 27 230 9.7 16.1 0.00 0.00 0.00 64 1012.9
20260504223535 28 239 9.7 17.7 0.00 0.00 0.00 60 1013.0
20260504222536 28 270 4.8 14.5 0.00 0.00 0.00 54 1013.1
20260504221516 28 259 4.8 16.1 0.00 0.00 0.00 54 1013.2
20260504220515 28 316 3.2 17.7 0.00 0.00 0.00 53 1013.2
20260504215515 30 315 4.8 16.1 0.00 0.00 0.00 51 1013.2
20260504214515 30 193 1.6 8.0 0.00 0.00 0.00 49 1013.0
20260504213515 29 255 3.2 9.7 0.00 0.00 0.00 51 1013.1
20260504212535 29 171 1.6 9.7 0.00 0.00 0.00 50 1013.1
20260504211515 31 114 1.6 12.9 0.00 0.00 0.00 45 1013.2
20260504210515 30 112 8.0 20.9 0.00 0.00 0.00 48 1013.3
20260504205515 29 110 6.4 14.5 0.00 0.00 0.00 50 1013.3
20260504204515 28 114 6.4 16.1 0.00 0.00 0.00 52 1013.3
20260504203515 28 276 1.6 8.0 0.00 0.00 0.00 51 1013.4
20260504202515 28 300 1.6 6.4 0.00 0.00 0.00 51 1013.5
20260504201515 28 353 1.6 9.7 0.00 0.00 0.00 52 1013.4
20260504200515 28 49 3.2 12.9 0.00 0.00 0.00 51 1013.7
20260504195515 29 117 4.8 12.9 0.00 0.00 0.00 52 1013.7
20260504194515 28 216 1.6 14.5 0.00 0.00 0.00 54 1013.7
20260504193515 28 47 3.2 12.9 0.00 0.00 0.00 52 1013.9
20260504192535 28 270 1.6 9.7 0.00 0.00 0.00 50 1014.0
20260504191535 28 124 3.2 6.4 0.00 0.00 0.00 50 1014.1
20260504190515 28 279 0.0 4.8 0.00 0.00 0.00 47 1014.2
20260504185515 28 241 3.2 14.5 0.00 0.00 0.00 47 1014.3
20260504184515 28 41 1.6 4.8 0.00 0.00 0.00 47 1014.5
20260504183515 28 47 1.6 9.7 0.00 0.00 0.00 47 1014.9
20260504182515 28 87 3.2 16.1 0.00 0.00 0.00 47 1015.1
20260504181515 28 94 1.6 11.3 0.00 0.00 0.00 49 1015.2
20260504180537 27 329 4.8 14.5 0.00 0.00 0.00 49 1015.4
20260504175517 27 47 4.8 9.7 0.00 0.00 0.00 50 1015.6
20260504174517 27 49 6.4 19.3 0.00 0.00 0.00 51 1015.5
20260504173517 27 37 4.8 11.3 0.00 0.00 0.00 50 1015.7
20260504172537 27 44 3.2 16.1 0.00 0.00 0.00 51 1016.0
20260504171517 27 67 4.8 16.1 0.00 0.00 0.00 51 1016.0
20260504170517 27 6 4.8 17.7 0.00 0.00 0.00 53 1016.1
20260504150516 25 49 6.4 17.7 0.00 0.00 0.00 61 1017.0
20260504140517 24 39 4.8 17.7 0.00 0.00 0.00 69 1016.8
20260504130516 22 41 4.8 20.9 0.00 0.00 0.00 75 1016.1